Weather History for KCLM - April, 2014

Change the Weather History Date:

Thursday, April 3, 2014

  Actual Average Record
Temperature  
Mean Temperature 44 °F -  
Max Temperature 51 °F 53 °F 64 °F (2004)
Min Temperature 37 °F 38 °F 28 °F (2007)
Degree Days  
Heating Degree Days 21    
Moisture  
Dew Point 40 °F    
Average Humidity 81    
Maximum Humidity 93    
Minimum Humidity 68    
Precipitation  
Precipitation 0.09 in - - ()
Sea Level Pressure  
Sea Level Pressure 29.88 in    
Wind  
Wind Speed 5 mph (WSW)    
Max Wind Speed 10 mph    
Max Gust Speed -    
Visibility 10 miles    
Events Rain    
Averages and records for this station are not official NWS values.
T = Trace of Precipitation, MM = Missing Value Source: NWS Daily Summary

Daily Weather History Graph

Daily Weather History Graph

Search for Another Location

Airport or City:

Trip Planner

Search our weather history database for the weather conditions in past years. The results will help you decide how hot, cold, wet, or windy it might be!

Date:

Astronomy

Apr. 03, 2014 Rise Set
Actual Time 6:47 AM PDT 7:47 PM PDT
Civil Twilight 6:16 AM PDT 8:19 PM PDT
Nautical Twilight 5:38 AM PDT 8:57 PM PDT
Astronomical Twilight 4:58 AM PDT 9:37 PM PDT
Moon 9:06 AM PDT (4/3) No Moon Set
Length of Visible Light 14h 02m
Length of Day
12h 59m
Waxing Crescent, 18% of the Moon is Illuminated
Apr 3
Waxing Crescent
Apr 7
First Quarter
Apr 15
Full
Apr 22
Last Quarter
Apr 28
New

Hourly Weather History & Observations

Time (PDT) Temp. Windchill Dew Point Humidity Pressure Visibility Wind Dir Wind Speed Gust Speed Precip Events Conditions
12:53 AM 43.0 °F 38.8 °F 37.9 °F 82% 29.98 in 10.0 mi SW 6.9 mph - N/A   Clear
1:53 AM 41.0 °F 38.0 °F 36.0 °F 82% 29.97 in 10.0 mi WSW 4.6 mph - N/A   Clear
2:53 AM 39.0 °F 36.8 °F 36.0 °F 89% 29.96 in 10.0 mi SW 3.5 mph - N/A   Clear
3:53 AM 37.9 °F 35.5 °F 36.0 °F 93% 29.95 in 10.0 mi SSW 3.5 mph - N/A   Clear
4:53 AM 39.9 °F 36.7 °F 36.0 °F 86% 29.94 in 10.0 mi WSW 4.6 mph - N/A   Clear
5:53 AM 39.9 °F 36.7 °F 37.0 °F 89% 29.93 in 10.0 mi SW 4.6 mph - N/A   Clear
6:53 AM 39.9 °F - 37.0 °F 89% 29.91 in 10.0 mi Calm Calm - N/A   Scattered Clouds
7:53 AM 42.1 °F 39.2 °F 39.0 °F 89% 29.90 in 10.0 mi SSE 4.6 mph - N/A   Overcast
8:53 AM 46.0 °F - 41.0 °F 83% 29.88 in 10.0 mi Calm Calm - N/A   Partly Cloudy
9:53 AM 46.9 °F - 39.9 °F 77% 29.88 in 10.0 mi East 4.6 mph - N/A   Clear
10:53 AM 48.9 °F - 39.9 °F 71% 29.86 in 10.0 mi Calm Calm - N/A   Partly Cloudy
11:53 AM 48.0 °F - 41.0 °F 77% 29.86 in 10.0 mi North 4.6 mph - N/A   Mostly Cloudy
12:53 PM 48.0 °F - 42.1 °F 80% 29.86 in 10.0 mi NW 8.1 mph - N/A   Overcast
1:53 PM 50.0 °F - 39.9 °F 68% 29.85 in 10.0 mi WNW 3.5 mph - N/A   Overcast
2:53 PM 51.1 °F - 41.0 °F 68% 29.84 in 10.0 mi NW 5.8 mph - N/A   Overcast
3:53 PM 51.1 °F - 41.0 °F 68% 29.82 in 10.0 mi East 3.5 mph - N/A   Overcast
4:53 PM 48.9 °F - 44.1 °F 83% 29.83 in 10.0 mi Calm Calm - 0.01 in Rain Light Rain
5:53 PM 50.0 °F - 44.1 °F 80% 29.83 in 10.0 mi West 6.9 mph - 0.05 in   Overcast
6:53 PM 48.9 °F - 45.0 °F 86% 29.81 in 10.0 mi Calm Calm - 0.01 in   Overcast
8:53 PM 45.0 °F 41.8 °F 42.1 °F 90% 29.83 in 10.0 mi West 5.8 mph - 0.02 in   Scattered Clouds
9:53 PM 45.0 °F 39.7 °F 39.9 °F 82% 29.84 in 10.0 mi WSW 10.4 mph - 0.00 in Rain Light Rain
10:53 PM 45.0 °F 39.7 °F 39.9 °F 82% 29.85 in 10.0 mi West 10.4 mph - 0.00 in   Partly Cloudy
11:53 PM 46.0 °F 41.4 °F 39.0 °F 76% 29.87 in 10.0 mi WSW 9.2 mph - N/A   Scattered Clouds